Back to catalog

CZ-4C R/B

AlivePO
NORAD 57491·ROCKET BODY·🇨🇳 China

Launched Aug 3, 2023 from Jiuquan Satellite Launch Center

Loading…

Next Passes (next 24 hours)

TLE

FreshSource: Space-Track

Epoch: Sep 14, 2026, 08:09 UTC

1 57491U 23111B   26257.33997890  .00000468  00000-0  10270-3 0  9995
2 57491  98.8379  41.1457 0136603 175.0737 185.1841 14.57319984165655

Track CZ-4C R/B in real time with AllMySat

Download on the App Store